This is the latest recevied weather packets stored in our database for station/object es2jt. If no packets are shown the sender has not sent any weather packets the latest 10 day(s).
| Time | Temp. | Humidity | Pressure | Rain* | Wind** | Luminosity | Snow |
|---|---|---|---|---|---|---|---|
| 1778006185 | 5.56° C | 75% | 1002.4 hPa | 0 mm | - | - | - |
| 1778005105 | 5.56° C | 77% | 1002.1 hPa | 0 mm | - | - | - |
| 1778004026 | 6.11° C | 75% | 1001.9 hPa | 0 mm | - | - | - |
| 1778002946 | 6.67° C | 73% | 1001.9 hPa | 0 mm | - | - | - |
| 1777999166 | 7.22° C | 67% | 1001.8 hPa | 0 mm | - | - | - |
| 1777998758 | 7.78° C | 66% | 1001.8 hPa | 0 mm | - | - | - |
| 1777991606 | 10° C | 59% | 1001.4 hPa | 0 mm | - | - | - |
| 1777987286 | 10° C | 61% | 1001.3 hPa | 0 mm | - | - | - |
| 1777986746 | 9.44° C | 66% | 1001.1 hPa | 0 mm | - | - | - |
| 1777978105 | 10.56° C | 65% | 1000.1 hPa | 0 mm | - | - | - |
| 1777977565 | 10.56° C | 63% | 1000 hPa | 0 mm | - | - | - |
| 1777973247 | 11.67° C | 58% | 998.8 hPa | 0 mm | - | - | - |
| 1777971085 | 12.22° C | 58% | 998.4 hPa | 0 mm | - | - | - |
| 1777965686 | 12.22° C | 55% | 997.9 hPa | 0 mm | - | - | - |
| 1777963525 | 12.22° C | 58% | 997.6 hPa | 0 mm | - | - | - |
| 1777922547 | 7.78° C | 94% | 997 hPa | 0 mm | - | - | - |
| 1777921061 | 7.78° C | 94% | 997 hPa | 0 mm | - | - | - |
| 1777919847 | 7.78° C | 94% | 997 hPa | 0 mm | - | - | - |
| 1777917147 | 7.78° C | 94% | 997 hPa | 0 mm | - | - | - |
| 1777914447 | 7.78° C | 94% | 997 hPa | 0 mm | - | - | - |
| 1777913907 | 7.78° C | 94% | 997 hPa | 0 mm | - | - | - |
| 1777910667 | 7.78° C | 94% | 997 hPa | 0 mm | - | - | - |
| 1777910127 | 7.78° C | 94% | 997 hPa | 0 mm | - | - | - |
| 1777908507 | 7.78° C | 94% | 997 hPa | 0 mm | - | - | - |
| 1777905266 | 7.78° C | 94% | 997 hPa | 0 mm | - | - | - |
* Rain latest hour (hover to see other rain measurements)
** Current wind speed in m/s (hover to see current wind gust speed)